Cloud_Cover
0 0 2 82 35 0 0 2 0 0 0 0 0 0 0 0 0 0 0 0 5 1 0 5 58 87 38 100 100 100 100 100 100 100 60 14 84 3 4 3 4 0 0 21
0 0 11 76 0 0 0 5 39 0 0 0 0 0 0 0 0 1 1 1 5 2 2 0 0 2 83 17 42 48 60 61 91 100 100 100 100 100 55 98 8 87 75 40
0 0 4 0 0 0 5 5 13 4 0 0 0 2 0 0 0 0 0 0 7 89 14 4 0 0 48 100 40 69 88 100 100 100 100 98 100 90 100 96 100 100 90 100
0 1 0 0 2 2 95 3 43 6 0 85 0 84 0 0 0 0 0 0 4 5 5 5 0 0 24 100 100 100 99 100 79 100 100 100 100 72 38 62 81 98 95 100
0 0 0 0 4 5 67 0 7 5 3 1 11 1 6 5 0 0 0 1 5 5 0 1 5 0 0 80 100 100 100 100 100 100 85 100 100 99 33 5 62 95 98 67
1 0 0 0 4 4 2 68 33 5 2 38 44 0 70 51 5 5 0 0 5 0 0 1 1 0 7 51 100 100 33 100 100 100 99 100 100 98 75 90 5 27 82 37
0 0 0 0 0 2 0 32 88 66 62 81 4 0 94 5 7 10 4 1 0 5 2 0 0 0 93 97 97 100 100 100 100 100 100 74 100 40 47 59 100 6 42 40
0 0 0 0 0 5 0 8 100 100 100 100 0 0 93 5 5 2 0 1 5 5 1 0 0 0 5 2 0 100 100 100 100 100 80 55 50 22 5 24 7 48 53 53
0 1 0 0 0 5 1 0 34 92 0 0 3 0 0 4 0 5 4 5 100 79 0 0 0 0 0 0 0 0 0 13 23 36 5 5 2 1 17 30 13 18 4 6
0 3 0 0 4 12 0 4 6 2 3 2 5 0 3 0 0 5 5 74 85 100 0 14 17 4 1 0 0 1 18 44 25 0 0 0 0 0 0 0 0 0 0 4
0 2 0 0 5 4 0 0 0 23 5 4 52 100 6 0 1 0 66 4 5 71 5 18 98 40 9 56 52 5 5 7 3 3 1 2 4 0 0 0 3 0 0 0
0 0 3 1 5 1 4 5 5 5 22 1 6 98 0 0 0 0 2 4 0 98 7 47 100 100 65 100 100 100 100 100 99 16 5 8 4 0 5 15 6 51 8 2
0 0 9 78 2 1 1 0 0 5 55 69 78 100 65 16 96 79 10 2 1 5 2 8 81 100 100 100 99 100 98 100 100 100 94 18 81 5 5 0 13 29 6 5
0 1 4 54 59 83 28 0 2 3 76 100 77 80 0 68 5 97 95 6 5 5 6 67 90 100 100 100 100 100 100 100 100 100 100 100 100 100 100 100 68 6 46 77
0 4 1 100 87 3 30 99 28 3 74 48 100 19 8 5 9 65 100 34 10 5 20 29 17 84 100 100 92 36 48 99 40 100 93 100 100 41 5 5 1 3 5 5
0 4 4 12 60 5 5 5 5 3 0 0 0 0 0 0 8 100 5 5 5 5 5 5 5 20 100 39 32 72 100 100 100 100 100 94 100 12 100 100 100 100 100 4
3 5 4 12 64 74 3 3 0 0 0 0 4 24 0 0 0 28 83 6 4 32 80 18 10 17 100 86 9 93 100 100 99 100 97 60 47 35 6 4 5 32 2 1
5 3 3 100 44 17 90 5 1 0 0 0 0 4 0 2 0 1 78 100 85 90 73 16 68 76 77 100 100 93 100 94 72 100 100 81 5 3 6 86 78 49 19 3
5 10 5 3 5 37 5 5 0 0 0 1 0 0 0 0 0 5 3 9 88 91 56 20 100 100 100 100 99 99 100 100 100 100 100 100 100 30 52 45 32 38 44 27
21 36 6 5 78 82 58 5 0 0 2 3 0 0 0 0 0 5 0 5 67 72 15 50 75 100 100 100 100 100 100 100 86 90 97 85 68 99 68 94 26 32 25 6
30 14 5 7 1 100 5 0 0 0 51 3 0 0 0 0 2 12 42 44 54 42 100 100 100 100 100 100 100 100 100 94 32 44 52 49 27 6 7 64 24 34 16 7
69 12 81 14 2 27 2 0 1 0 0 0 0 0 0 0 0 20 57 49 5 99 100 100 100 100 100 100 100 100 100 100 73 89 100 74 38 88 5 1 3 5 1 0
98 36 92 75 78 59 1 0 0 0 0 0 0 0 0 0 0 2 6 5 68 100 56 100 100 100 100 100 100 100 100 100 100 100 100 84 5 5 5 5 5 0 0 0
99 100 84 60 88 18 74 8 0 0 0 0 0 0 0 0 4 5 5 13 99 99 81 100 100 100 100 100 100 100 100 100 100 100 100 98 52 93 83 5 0 0 0 3
99 100 100 99 72 83 54 24 2 0 0 0 0 4 5 42 98 54 38 5 10 57 100 100 100 100 100 100 100 100 100 100 100 99 70 75 48 100 5 4 1 0 56 15
100 70 91 87 100 83 100 85 5 5 12 5 95 43 78 52 94 100 94 5 5 4 100 100 100 100 100 100 100 100 88 100 100 19 24 66 98 5 5 1 0 0 0 0